Location: Hoover
(45.1124°N, 103.2678°W)
Time: 03:49:27
(UTC+00:00)

N. Korean satellite - Pass Details

Date: 28 November 2020
Orbit: 453 x 502 km, 97.2° (Epoch: 16 January)

Event Time Altitude Azimuth Distance (km) Brightness Sun altitude
Rises 13:19:01 0° 358° (N) 2,551 10.0 -8.7°
Reaches altitude 10° 13:21:23 10° 343° (NNW) 1,675 8.9 -8.3°
Maximum altitude 13:24:11 22° 292° (WNW) 1,124 7.8 -7.8°
Drops below altitude 10° 13:27:01 10° 241° (WSW) 1,685 8.9 -7.4°
Sets 13:29:25 0° 225° (SW) 2,570 10.0 -7.0°
